{"data":{"norad_id":64300,"epoch":"2026-09-20T14:19:49.810656Z","epoch_age_seconds":129220,"freshness":"FRESH","line1":"1 64300U 25123K   26263.59710429  .00011122  00000+0  39067-3 0  9996","line2":"2 64300  70.0001  60.6436 0003201 269.8255  90.2553 15.29587653 70878","mean_motion":15.29587653,"eccentricity":0.0003201,"inclination_deg":70.0001,"raan_deg":60.6436,"arg_perigee_deg":269.8255,"mean_anomaly_deg":90.2553,"bstar":0.00039067,"rev_number":7087,"period_min":94.143019340913,"perigee_km":474.84969367047,"apogee_km":479.23838057043,"semimajor_km":6855.1810371204,"source":"CELESTRAK","updated_at":"2026-09-21T09:00:35.306727Z"}}